Regional Weather Roundup
Issued by NWS Burlington, VT

Current Version | Previous Version | Text Only | Print | Product List | Glossary Off
Versions: 1 2 3 4 5 6 7 8 9 10 11 12 13 14 15 16 17 18 19 20 21 22 23 24 25 26 27 28 29 30 31 32 33 34 35 36 37 38 39 40 41 42 43 44 45 46 47 48 49 50

000
ASUS41 KBTV 260210
RWRBTV
VERMONT REGIONAL WEATHER ROUNDUP
NATIONAL WEATHER SERVICE BURLINGTON VT
1000 PM EDT MON MAY 25 2015

NOTE: "FAIR" INDICATES FEW OR NO CLOUDS BELOW 12,000 FEET WITH NO
SIGNIFICANT WEATHER AND/OR OBSTRUCTIONS TO VISIBILITY.

* THESE REPORTS ARE NOT UNDER NWS QUALITY CONTROL AND/OR DO NOT
  REPORT WEATHER SUCH AS PRECIPITATION AND FOG.

VTZ001>019-260300-
_____VERMONT_____


CITY           SKY/WX    TMP DP  RH WIND       PRES   REMARKS
BURLINGTON     CLOUDY    65  60  84 E7        30.02F
MONTPELIER     LGT RAIN  61  59  93 S3        30.12F
MORRISVILLE    RAIN     N/A N/A N/A CALM      30.09F
ST. JOHNSBURY*   N/A     62  60  93 MISG      30.09R
LYNDONVILLE*   LGT RAIN  60  55  85 CALM      30.13S
MIDDLEBURY*    CLOUDY    66  64  95 CALM      30.03S
RUTLAND*       CLOUDY    72  57  60 SE10      30.06S
SPRINGFIELD    CLOUDY    65  61  87 CALM      30.09R
HIGHGATE*      HVY RAIN  62  60  96 SE7       30.01F
NEWPORT*       RAIN      59  57  93 S5        30.09S
BENNINGTON     CLOUDY    77  55  46 S16G25    30.08S
SUTTON*          N/A     57 N/A N/A MISG        N/A

_____LAKE CHAMPLAIN_____


CITY           SKY/WX    TMP DP  RH WIND       PRES   REMARKS

$$

NYZ007-026>031-035-052-083-260300-
_____NORTHERN NEW YORK_____


CITY           SKY/WX    TMP DP  RH WIND       PRES   REMARKS
PLATTSBURGH    LGT RAIN  60  59  96 CALM      30.02F FOG
SARANAC LAKE   CLOUDY    63  61  93 CALM      30.04
MASSENA        CLOUDY    63  61  93 E3        29.98F FOG
OGDENSBURG*    PTCLDY    64  63  94 S3        29.97S FOG
POTSDAM*       LGT RAIN  64  64 100 S8        29.98R
WATERTOWN      LGT RAIN  66  64  93 CALM      30.00R FOG
FT DRUM        RAIN      66  66 100 S8        30.02R FOG
ALBANY         MOCLDY    79  56  45 S9        30.06R
GLENS FALLS    CLOUDY    70  63  78 CALM      30.03R

$$
NHZ002-005-011-260300-
_____NEW HAMPSHIRE_____


CITY           SKY/WX    TMP DP  RH WIND       PRES   REMARKS
LEBANON        CLOUDY    65  61  87 CALM      30.07S
KEENE          CLOUDY   N/A N/A N/A S12       30.12S
MT WASHINGTON  LGT RAIN  48  48 100 SW46G60     N/A  VSB 1/16
PLYMOUTH       CLOUDY    63  63 100 CALM      30.11R
WHITEFIELD     LGT RAIN  61  59  93 CALM      30.11R FOG

$$

_____REGIONAL QUEBEC LOCATIONS_____


CITY           SKY/WX    TMP DP  RH WIND       PRES   REMARKS
MONTREAL       LGT RAIN  61  59  94 E7        30.00F FOG
QUEBEC CITY    LGT RAIN  61  59  94 SW5       30.05F
SHERBROOKE     LGT RAIN  59 N/A N/A E6        30.07F

_____REGIONAL ONTARIO LOCATIONS_____


CITY           SKY/WX    TMP DP  RH WIND       PRES   REMARKS
OTTAWA         CLOUDY    61  61 100 SE9       29.96S FOG

______KEY______
VSB  - VISIBILITY IN MILES
WCI  - WIND CHILL INDEX
HX   - HEAT INDEX
$$
NNNN



USA.gov is the U.S. government's official web portal to all federal, state and local government web resources and services.